When you browse on this site, cookies collect data to enhance your experience and personalize the content and advertising you see.
Visit our Privacy Policy to learn more. By continuing to use the site, you agree to this use of cookies and data.
  • In Hungary
  • List of Countries
  • For 7 days
  • Water Temperature
  • Satellite Maps
  • Weather Map
  • News
  • Weather Widgets
  • user-avatar
    Login

    Hourly Weather Kamien

    Today, 25 May, Saturday

    Time Temperature Precipitation Wind Pressure Humidity
    00:00 +11°C° 0 mm 1 mps 734 mmHg 90%
    01:00 +11°C° 0 mm 1 mps 734 mmHg 90%
    02:00 +11°C° 0 mm 1 mps 734 mmHg 90%
    03:00 +10°C° 0 mm 1 mps 734 mmHg 90%
    04:00 +10°C° 0 mm 1 mps 734 mmHg 90%
    05:00 +12°C° 0 mm 2 mps 734 mmHg 84%
    06:00 +13°C° 0 mm 2 mps 734 mmHg 78%
    07:00 +15°C° 0 mm 2 mps 734 mmHg 69%
    08:00 +17°C° 0 mm 2 mps 734 mmHg 63%
    09:00 +18°C° 0 mm 2 mps 734 mmHg 56%
    10:00 +20°C° 0 mm 2 mps 735 mmHg 50%
    11:00 +20°C° 0 mm 2 mps 734 mmHg 49%
    12:00 +21°C° 0 mm 2 mps 734 mmHg 49%
    13:00 +23°C° 0 mm 2 mps 734 mmHg 48%
    14:00 +23°C° 0 mm 2 mps 734 mmHg 50%
    15:00 +23°C° 0 mm 2 mps 734 mmHg 51%
    16:00 +23°C° 0 mm 2 mps 734 mmHg 53%
    17:00 +20°C° 0 mm 2 mps 734 mmHg 60%
    18:00 +18°C° 0 mm 2 mps 734 mmHg 66%
    19:00 +18°C° 0 mm 1 mps 734 mmHg 72%
    20:00 +16°C° 0 mm 1 mps 734 mmHg 76%
    21:00 +15°C° 0 mm 1 mps 734 mmHg 80%
    22:00 +14°C° 0 mm 1 mps 735 mmHg 84%
    23:00 +13°C° 0 mm 1 mps 735 mmHg 85%

    Tomorrow, 26 May, Sunday

    Time Temperature Precipitation Wind Pressure Humidity
    00:00 +13°C° 0 mm 1 mps 735 mmHg 86%
    01:00 +13°C° 0 mm 1 mps 735 mmHg 87%
    02:00 +12°C° 0 mm 1 mps 735 mmHg 87%
    03:00 +12°C° 0 mm 1 mps 735 mmHg 88%
    04:00 +12°C° 0 mm 1 mps 735 mmHg 88%
    05:00 +14°C° 0 mm 1 mps 735 mmHg 84%
    06:00 +15°C° 0 mm 1 mps 735 mmHg 80%
    07:00 +17°C° 0 mm 2 mps 735 mmHg 76%
    08:00 +18°C° 0.1 mm 2 mps 735 mmHg 73%
    09:00 +19°C° 0.1 mm 2 mps 735 mmHg 69%
    10:00 +21°C° 0.1 mm 2 mps 735 mmHg 65%
    11:00 +21°C° 0.1 mm 3 mps 735 mmHg 63%
    12:00 +22°C° 0.1 mm 3 mps 735 mmHg 61%
    13:00 +22°C° 0.1 mm 3 mps 735 mmHg 59%
    14:00 +22°C° 0.5 mm 3 mps 734 mmHg 63%
    15:00 +22°C° 0.5 mm 3 mps 734 mmHg 66%
    16:00 +22°C° 0.5 mm 3 mps 734 mmHg 70%
    17:00 +20°C° 0.6 mm 3 mps 734 mmHg 75%
    18:00 +19°C° 0.6 mm 2 mps 734 mmHg 80%
    19:00 +18°C° 0.6 mm 2 mps 734 mmHg 85%
    20:00 +17°C° 0.1 mm 2 mps 734 mmHg 87%
    21:00 +16°C° 0.1 mm 2 mps 734 mmHg 89%
    22:00 +15°C° 0.1 mm 2 mps 734 mmHg 91%
    23:00 +15°C° 0 mm 2 mps 734 mmHg 91%

    Day after tomorrow, 27 May, Monday

    Time Temperature Precipitation Wind Pressure Humidity
    00:00 +14°C° 0 mm 2 mps 734 mmHg 91%
    01:00 +14°C° 0 mm 2 mps 734 mmHg 92%
    02:00 +14°C° 0 mm 2 mps 734 mmHg 92%
    03:00 +14°C° 0 mm 2 mps 734 mmHg 91%
    04:00 +13°C° 0 mm 2 mps 734 mmHg 91%
    05:00 +15°C° 0 mm 2 mps 734 mmHg 87%
    06:00 +17°C° 0 mm 2 mps 734 mmHg 83%
    07:00 +19°C° 0 mm 2 mps 734 mmHg 79%
    08:00 +20°C° 0.3 mm 2 mps 734 mmHg 74%
    09:00 +22°C° 0.3 mm 3 mps 734 mmHg 70%
    10:00 +23°C° 0.3 mm 4 mps 734 mmHg 65%
    11:00 +23°C° 0.7 mm 4 mps 734 mmHg 65%
    12:00 +23°C° 0.7 mm 4 mps 733 mmHg 64%
    13:00 +25°C° 0.7 mm 4 mps 733 mmHg 64%
    14:00 +23°C° 0.2 mm 4 mps 733 mmHg 68%
    15:00 +22°C° 0.2 mm 3 mps 733 mmHg 71%
    16:00 +23°C° 0.2 mm 2 mps 732 mmHg 74%
    17:00 +21°C° 0 mm 2 mps 732 mmHg 76%
    18:00 +21°C° 0 mm 1 mps 732 mmHg 78%
    19:00 +20°C° 0 mm 1 mps 732 mmHg 80%
    20:00 +19°C° 0 mm 1 mps 732 mmHg 82%
    21:00 +18°C° 0 mm 1 mps 732 mmHg 85%
    22:00 +16°C° 0 mm 1 mps 732 mmHg 87%
    23:00 +16°C° 0.3 mm 1 mps 732 mmHg 89%

    28 May, Tuesday

    Time Temperature Precipitation Wind Pressure Humidity
    00:00 +16°C° 0.3 mm 1 mps 731 mmHg 90%
    01:00 +18°C° 0.3 mm 1 mps 731 mmHg 91%
    02:00 +16°C° 0.4 mm 1 mps 731 mmHg 92%
    03:00 +16°C° 0.4 mm 1 mps 730 mmHg 93%
    04:00 +16°C° 0.4 mm 1 mps 730 mmHg 94%
    05:00 +18°C° 0.1 mm 1 mps 730 mmHg 90%
    06:00 +20°C° 0.1 mm 1 mps 730 mmHg 87%
    07:00 +21°C° 0.1 mm 1 mps 730 mmHg 83%
    08:00 +21°C° 0.1 mm 2 mps 729 mmHg 75%
    09:00 +24°C° 0.1 mm 2 mps 729 mmHg 67%
    10:00 +25°C° 0.1 mm 3 mps 729 mmHg 59%
    11:00 +26°C° 0 mm 3 mps 729 mmHg 56%
    12:00 +26°C° 0 mm 3 mps 728 mmHg 52%
    13:00 +27°C° 0 mm 3 mps 728 mmHg 48%
    14:00 +25°C° 0.6 mm 3 mps 727 mmHg 60%
    15:00 +22°C° 0.6 mm 3 mps 727 mmHg 72%
    16:00 +19°C° 0.6 mm 3 mps 727 mmHg 84%
    17:00 +19°C° 0 mm 2 mps 726 mmHg 84%
    18:00 +20°C° 0 mm 1 mps 726 mmHg 83%
    19:00 +17°C° 0 mm 0 mps 726 mmHg 83%
    20:00 +18°C° 0.5 mm 1 mps 726 mmHg 85%
    21:00 +18°C° 0.5 mm 1 mps 726 mmHg 87%
    22:00 +16°C° 0.5 mm 1 mps 727 mmHg 89%
    23:00 +15°C° 0.1 mm 2 mps 727 mmHg 91%

    29 May, Wednesday

    Time Temperature Precipitation Wind Pressure Humidity
    00:00 +15°C° 0.1 mm 2 mps 727 mmHg 93%
    01:00 +14°C° 0.1 mm 2 mps 727 mmHg 96%
    02:00 +14°C° 0 mm 2 mps 727 mmHg 95%
    03:00 +13°C° 0 mm 3 mps 727 mmHg 95%
    04:00 +13°C° 0 mm 3 mps 728 mmHg 95%
    05:00 +12°C° 0.1 mm 3 mps 728 mmHg 94%
    06:00 +12°C° 0.1 mm 3 mps 729 mmHg 94%
    07:00 +12°C° 0.1 mm 3 mps 729 mmHg 93%
    08:00 +11°C° 0.2 mm 3 mps 730 mmHg 92%
    09:00 +11°C° 0.2 mm 4 mps 730 mmHg 91%
    10:00 +11°C° 0.2 mm 4 mps 731 mmHg 90%
    11:00 +11°C° 0.2 mm 4 mps 731 mmHg 90%
    12:00 +11°C° 0.2 mm 4 mps 732 mmHg 89%
    13:00 +11°C° 0.2 mm 4 mps 732 mmHg 89%
    14:00 +11°C° 0.1 mm 3 mps 733 mmHg 88%
    15:00 +12°C° 0.1 mm 3 mps 733 mmHg 87%
    16:00 +12°C° 0.1 mm 3 mps 733 mmHg 86%
    17:00 +11°C° 0.1 mm 3 mps 734 mmHg 87%
    18:00 +11°C° 0.1 mm 3 mps 734 mmHg 88%
    19:00 +11°C° 0.1 mm 3 mps 735 mmHg 89%
    20:00 +10°C° 0.7 mm 3 mps 735 mmHg 90%
    21:00 +10°C° 0.7 mm 2 mps 736 mmHg 91%
    22:00 +10°C° 0.7 mm 2 mps 736 mmHg 92%
    23:00 +9°C° 0.7 mm 2 mps 737 mmHg 92%

    30 May, Thursday

    Time Temperature Precipitation Wind Pressure Humidity
    00:00 +9°C° 0.7 mm 2 mps 737 mmHg 91%
    01:00 +8°C° 0.7 mm 2 mps 737 mmHg 90%
    02:00 +9°C° 0.5 mm 1 mps 738 mmHg 91%
    03:00 +9°C° 0.5 mm 1 mps 738 mmHg 91%
    04:00 +8°C° 0.5 mm 1 mps 739 mmHg 91%
    05:00 +8°C° 1 mm 1 mps 739 mmHg 91%
    06:00 +8°C° 1 mm 1 mps 740 mmHg 90%
    07:00 +8°C° 1 mm 1 mps 740 mmHg 90%
    08:00 +9°C° 0.4 mm 1 mps 741 mmHg 88%
    09:00 +9°C° 0.4 mm 1 mps 741 mmHg 86%
    10:00 +10°C° 0.4 mm 1 mps 741 mmHg 84%
    11:00 +11°C° 0.1 mm 1 mps 741 mmHg 81%
    12:00 +11°C° 0.1 mm 1 mps 741 mmHg 78%
    13:00 +12°C° 0.1 mm 2 mps 741 mmHg 74%
    14:00 +13°C° 0 mm 2 mps 741 mmHg 71%
    15:00 +13°C° 0 mm 2 mps 741 mmHg 68%
    16:00 +14°C° 0 mm 2 mps 741 mmHg 65%
    17:00 +13°C° 0 mm 1 mps 740 mmHg 68%
    18:00 +12°C° 0 mm 1 mps 740 mmHg 72%
    19:00 +11°C° 0 mm 1 mps 740 mmHg 76%
    20:00 +10°C° 0 mm 1 mps 740 mmHg 79%
    21:00 +9°C° 0 mm 1 mps 740 mmHg 82%
    22:00 +8°C° 0 mm 1 mps 740 mmHg 85%
    23:00 +8°C° 0 mm 1 mps 740 mmHg 85%
    Show more